Flag for Morocco Weather past 2 weeks in Marrakech, Morocco

Now
70 °F

Passing clouds.


Feels Like: 70 °F
Forecast: 59 / 85 °F
Wind: 9 mph from Northeast

Location: Marrakech Airport

Current Time: May 25, 2015 at 10:56:21 PM

Latest Report: May 25, 2015 at 10:00 PM


Visibility: N/A

Pressure: 29.98 "Hg

Humidity: 53%

Dew point: 52 °F

Location of MarrakechLocation

Historic Weather in Marrakech — Graph

°F

Marrakech temperature yesterday

Maximum temperature yesterday: 77 °F (at 5:00 PM)
Minimum temperature yesterday: 59 °F (at 5:00 AM)
Average temperature yesterday: 67 °F

Past Weeks' High & Low Weather Summary

 TemperatureHumidityPressure
High108 °F (May 12, 3:00 PM)100% (May 18, 5:30 AM)30.15 "Hg (May 18, 5:30 AM)
Low59 °F (May 18, 5:30 AM)7% (May 11, 3:30 PM)29.86 "Hg (May 24, 5:30 PM)
Average77 °F48%30.02 "Hg
* Reported May 10 9:00 PM — May 25 9:30 PM, Marrakech, Weather by CustomWeather, © 2015

Note: Actual official high and low records may vary slightly from our data, if they occured in-between our weather recording intervals... More about our weather records

Advertising

Marrakech weather history for previous 24 hours

 ConditionsComfort  
Time TempWeatherWind HumidityBarometerVisibility
9:30 PM
Mon, May 25
70 °FPassing clouds.10 mph53%29.98 "HgN/A
9:00 PM70 °FPassing clouds.13 mph57%29.98 "HgN/A
8:30 PM70 °FPassing clouds.15 mph60%29.95 "HgN/A
8:00 PM72 °FPartly sunny.16 mph61%29.95 "HgN/A
7:30 PM72 °FPartly sunny.15 mph57%29.95 "HgN/A
7:00 PM77 °FPartly sunny.2 mph36%29.92 "HgN/A
6:30 PM77 °FPartly sunny.7 mph36%29.92 "HgN/A
6:00 PM77 °FPartly sunny.9 mph36%29.92 "HgN/A
5:30 PM79 °FPartly sunny.5 mph34%29.92 "HgN/A
5:00 PM79 °FPartly sunny.8 mph34%29.92 "HgN/A
4:30 PM79 °FPartly sunny.5 mph34%29.92 "HgN/A
4:00 PM75 °FPartly sunny.5 mph41%29.95 "HgN/A
3:30 PM75 °FPartly sunny.6 mph41%29.95 "HgN/A
3:00 PM75 °FPartly sunny.7 mph41%29.95 "HgN/A
2:30 PM75 °FPartly sunny.7 mph44%29.95 "HgN/A
2:00 PM75 °FScattered clouds.3 mph44%29.98 "HgN/A
1:30 PM72 °FScattered clouds.5 mph47%29.98 "HgN/A
1:00 PM72 °FScattered clouds.7 mph47%30.01 "HgN/A
12:30 PM72 °FScattered clouds.3 mph50%30.01 "HgN/A
12:00 PM70 °FScattered clouds.7 mph53%30.01 "HgN/A
11:30 AM70 °FScattered clouds.6 mph57%30.01 "HgN/A
11:00 AM66 °FScattered clouds.6 mph64%30.01 "HgN/A
10:30 AM64 °FScattered clouds.8 mph73%30.01 "HgN/A
10:00 AM66 °FScattered clouds.6 mph68%30.01 "HgN/A
9:30 AM64 °FScattered clouds.8 mph78%30.01 "HgN/A
9:00 AM63 °FScattered clouds.7 mph83%29.98 "HgN/A
8:30 AM59 °FScattered clouds.7 mph94%29.98 "HgN/A
8:00 AM59 °FScattered clouds.5 mph94%29.98 "HgN/A
7:30 AM59 °FScattered clouds.5 mph94%29.98 "HgN/A
7:00 AM59 °FScattered clouds.6 mph94%29.98 "HgN/A
6:30 AM59 °FScattered clouds.6 mph94%29.98 "HgN/A
6:00 AM59 °FPassing clouds.8 mph94%29.95 "HgN/A
5:30 AM59 °FPassing clouds.6 mph94%29.95 "HgN/A
5:00 AM59 °FPassing clouds.7 mph94%29.95 "HgN/A
4:30 AM59 °FPassing clouds.6 mph94%29.95 "HgN/A
4:00 AM59 °FPassing clouds.6 mph94%29.95 "HgN/A
3:30 AM59 °FPassing clouds.6 mph94%29.95 "HgN/A
3:00 AM59 °FPassing clouds.8 mph94%29.95 "HgN/A
2:30 AM59 °FPassing clouds.8 mph94%29.95 "HgN/A
2:00 AM61 °FPassing clouds.8 mph88%29.95 "HgN/A
1:30 AM61 °FPassing clouds.8 mph88%29.98 "HgN/A
1:00 AM61 °FPassing clouds.8 mph88%29.98 "HgN/A
12:30 AM63 °FPassing clouds.7 mph83%29.98 "Hg4 mi
12:00 AM64 °FPassing clouds.3 mph78%29.98 "HgN/A
11:30 PM
Sun, May 24
64 °FPassing clouds.2 mph83%29.98 "HgN/A
11:00 PM64 °FPassing clouds.No wind83%29.98 "HgN/A
10:30 PM64 °FPassing clouds.3 mph83%29.98 "HgN/A
10:00 PM64 °FPassing clouds.5 mph83%29.95 "HgN/A
Weather by CustomWeather, © 2015

See weather overviewHow to use our weather pages